Weather History for Kendall, FL

Change the Weather History Date:

Monday, November 19, 2012

  Actual Average Record
Temperature  
Mean Temperature 68 °F -  
Max Temperature 75 °F 81 °F 86 °F (2000)
Min Temperature 61 °F 63 °F 48 °F (2006)
Cooling Degree Days 3    
Growing Degree Days 18 (Base 50)    
Moisture  
Dew Point 59 °F    
Average Humidity 78    
Maximum Humidity 94    
Minimum Humidity 46    
Precipitation  
Precipitation 0.00 in - - ()
Sea Level Pressure  
Sea Level Pressure 30.08 in    
Wind  
Wind Speed 9 mph (North)    
Max Wind Speed 15 mph    
Max Gust Speed -    
Visibility 10 miles    
Events      
Averages and records for this station are not official NWS values.
T = Trace of Precipitation, MM = Missing Value Source: NWS Daily Summary

Daily Weather History Graph

Daily Weather History Graph

Search for Another Location

Airport:

Trip Planner

Search our weather history database for the weather conditions in past years. The results will help you decide how hot, cold, wet, or windy it might be!

Date:

Astronomy

Nov. 19, 2012 Rise Set
Actual Time 6:42 AM EST 5:31 PM EST
Civil Twilight 6:18 AM EST 5:56 PM EST
Nautical Twilight 5:50 AM EST 6:24 PM EST
Astronomical Twilight 5:22 AM EST 6:51 PM EST
Moon 11:57 AM EST (11/19) 11:41 PM EST (11/19)
Length of Visible Light 11h 37m
Length of Day
10h 49m
Waxing Crescent, 40% of the Moon is Illuminated
Nov 19
Waxing Crescent
Nov 20
First Quarter
Nov 28
Full
Dec 6
Last Quarter
Dec 13
New

Hourly Weather History & Observations

Time (EST) Temp. Dew Point Humidity Pressure Visibility Wind Dir Wind Speed Gust Speed Precip Events Conditions
12:30 AM 66.2 °F 64.4 °F 94% 30.09 in 10.0 mi North 5.8 mph - N/A   Mostly Cloudy
12:53 AM 66.0 °F 64.0 °F 93% 30.10 in 10.0 mi North 9.2 mph - N/A   Overcast
1:16 AM 66.2 °F 62.6 °F 88% 30.09 in 10.0 mi North 9.2 mph - N/A   Mostly Cloudy
1:53 AM 64.9 °F 63.0 °F 93% 30.09 in 10.0 mi North 9.2 mph - N/A   Mostly Cloudy
2:18 AM 64.4 °F 62.6 °F 94% 30.09 in 10.0 mi North 9.2 mph - N/A   Mostly Cloudy
2:39 AM 64.4 °F 62.6 °F 94% 30.09 in 10.0 mi North 10.4 mph - N/A   Mostly Cloudy
2:53 AM 64.0 °F 62.1 °F 93% 30.08 in 10.0 mi North 9.2 mph - N/A   Scattered Clouds
3:53 AM 63.0 °F 61.0 °F 93% 30.08 in 10.0 mi North 9.2 mph - N/A   Clear
4:53 AM 63.0 °F 60.1 °F 90% 30.09 in 10.0 mi North 10.4 mph - N/A   Mostly Cloudy
5:53 AM 62.1 °F 59.0 °F 90% 30.10 in 10.0 mi North 9.2 mph - N/A   Clear
6:53 AM 61.0 °F 59.0 °F 93% 30.11 in 10.0 mi North 9.2 mph - N/A   Clear
7:53 AM 64.0 °F 59.0 °F 84% 30.12 in 10.0 mi North 11.5 mph - N/A   Clear
8:53 AM 66.9 °F 57.0 °F 70% 30.13 in 10.0 mi North 13.8 mph - N/A   Clear
9:53 AM 70.0 °F 57.0 °F 63% 30.14 in 10.0 mi North 8.1 mph - N/A   Clear
10:53 AM 73.0 °F 57.0 °F 57% 30.12 in 10.0 mi North 6.9 mph - N/A   Clear
11:53 AM 73.0 °F 54.0 °F 51% 30.11 in 10.0 mi NNW 15.0 mph - N/A   Clear
12:53 PM 73.0 °F 55.9 °F 55% 30.07 in 10.0 mi North 10.4 mph - N/A   Clear
1:53 PM 75.0 °F 55.9 °F 51% 30.04 in 10.0 mi North 11.5 mph - N/A   Clear
2:53 PM 75.9 °F 54.0 °F 46% 30.02 in 10.0 mi North 12.7 mph - N/A   Clear
3:53 PM 75.0 °F 57.0 °F 53% 30.02 in 10.0 mi North 11.5 mph - N/A   Clear
4:53 PM 71.1 °F 57.9 °F 63% 30.02 in 10.0 mi North 11.5 mph - N/A   Clear
5:53 PM 66.0 °F 57.9 °F 75% 30.04 in 10.0 mi North 9.2 mph - N/A   Clear
6:53 PM 63.0 °F 57.9 °F 84% 30.05 in 10.0 mi North 9.2 mph - N/A   Clear
7:53 PM 62.1 °F 57.0 °F 84% 30.07 in 10.0 mi North 11.5 mph - N/A   Clear
8:53 PM 62.1 °F 57.0 °F 84% 30.07 in 10.0 mi North 9.2 mph - N/A   Clear
9:27 PM 62.6 °F 57.2 °F 82% 30.07 in 10.0 mi North 10.4 mph - N/A   Mostly Cloudy
9:53 PM 62.6 °F 57.2 °F 82% 30.07 in 10.0 mi North 8.1 mph - N/A   Overcast
10:53 PM 62.1 °F 57.0 °F 84% 30.06 in 10.0 mi North 10.4 mph - N/A   Overcast
11:53 PM 62.1 °F 57.0 °F 84% 30.05 in 10.0 mi North 10.4 mph - N/A   Overcast